timestamp,surface_pressure_avg,surface_temp_avg,battery_voltage,lat,long
2019-11-13 00:09:01+00:00,349.7197,8.1,12.81,47.84626,-54.09684
2019-11-13 00:19:01+00:00,351.0581,8.1,12.81,47.84626,-54.09684
2019-11-13 00:29:01+00:00,352.3295,8.1,12.81,47.84626,-54.09684
2019-11-13 00:39:01+00:00,346.68300000000005,8.1,12.81,47.84626,-54.09684
2019-11-13 00:49:01+00:00,344.1396,8.1,12.81,47.84626,-54.09684
2019-11-13 00:59:01+00:00,338.3179,8.1,12.81,47.84626,-54.09684
2019-11-13 01:09:01+00:00,331.05300000000005,8.1,12.81,47.84626,-54.09684
2019-11-13 01:19:01+00:00,332.603,8.1,12.81,47.84626,-54.09684
2019-11-13 01:29:01+00:00,324.803,8.1,12.81,47.84626,-54.09684
2019-11-13 01:39:01+00:00,313.5247,8.1,12.81,47.84626,-54.09684
2019-11-13 01:49:01+00:00,311.0613,8.1,12.81,47.84626,-54.09684
2019-11-13 01:59:01+00:00,313.3162,8.1,12.81,47.84626,-54.09684
2019-11-13 02:09:01+00:00,301.738,8.1,12.81,47.84626,-54.09684
2019-11-13 02:19:01+00:00,287.9247,8.1,12.81,47.84626,-54.09684
2019-11-13 02:29:01+00:00,290.0514,8.1,12.81,47.84626,-54.09684
2019-11-13 02:39:01+00:00,286.9113,8.1,12.81,47.84626,-54.09684
2019-11-13 02:49:01+00:00,269.4981,8.1,12.81,47.84626,-54.09684
2019-11-13 02:59:01+00:00,262.9464,8.1,12.81,47.84626,-54.09684
2019-11-13 03:09:01+00:00,268.6531,8.1,12.81,47.84626,-54.09684
2019-11-13 03:19:01+00:00,254.9498,8.1,12.73,47.84626,-54.09684
2019-11-13 03:29:01+00:00,233.5114,8.1,12.73,47.84626,-54.09684
2019-11-13 03:39:01+00:00,234.4931,8.1,12.73,47.84626,-54.09684
2019-11-13 03:49:01+00:00,236.4531,8.1,12.73,47.84626,-54.09684
2019-11-13 03:59:01+00:00,221.1414,8.1,12.73,47.84626,-54.09684
2019-11-13 04:09:01+00:00,210.1781,8.1,12.73,47.84626,-54.09684
2019-11-13 04:19:01+00:00,214.1898,8.09,12.73,47.84626,-54.09684
2019-11-13 04:29:01+00:00,209.1831,8.09,12.73,47.84626,-54.09684
2019-11-13 04:39:01+00:00,197.2831,8.09,12.73,47.84626,-54.09684
2019-11-13 04:49:01+00:00,193.3531,8.09,12.73,47.84626,-54.09684
2019-11-13 04:59:01+00:00,195.9965,8.09,12.73,47.84626,-54.09684
2019-11-13 05:09:01+00:00,190.5131,8.09,12.73,47.84626,-54.09684
2019-11-13 05:19:01+00:00,183.0048,8.07,12.73,47.84626,-54.09684
2019-11-13 05:29:01+00:00,185.0881,8.06,12.73,47.84626,-54.09684
2019-11-13 05:39:01+00:00,185.2231,8.04,12.73,47.84626,-54.09684
2019-11-13 05:49:01+00:00,177.0398,8.0,12.73,47.84626,-54.09684
2019-11-13 05:59:01+00:00,177.3798,8.0,12.73,47.84626,-54.09684
2019-11-13 06:09:01+00:00,190.7181,8.01,12.73,47.84626,-54.09684
2019-11-13 06:19:01+00:00,194.8982,8.0,12.73,47.84626,-54.09684
2019-11-13 06:29:01+00:00,194.9064,8.0,12.73,47.84626,-54.09684
2019-11-13 06:39:01+00:00,200.2548,8.0,12.73,47.84626,-54.09684
2019-11-13 06:49:01+00:00,204.9598,8.0,12.73,47.84626,-54.09684
2019-11-13 06:59:01+00:00,212.2081,8.0,12.73,47.84626,-54.09684
2019-11-13 07:09:01+00:00,217.5397,8.0,12.73,47.84626,-54.09684
2019-11-13 07:19:01+00:00,221.3281,8.0,12.73,47.84626,-54.09684
2019-11-13 07:29:01+00:00,227.8647,8.0,12.73,47.84626,-54.09684
2019-11-13 07:39:01+00:00,233.6948,8.0,12.73,47.84626,-54.09684
2019-11-13 07:49:01+00:00,237.0831,8.0,12.73,47.84626,-54.09684
2019-11-13 07:59:01+00:00,242.4747,8.0,12.73,47.84626,-54.09684
2019-11-13 08:09:01+00:00,249.7931,8.0,12.73,47.84626,-54.09684
2019-11-13 08:19:01+00:00,253.7914,8.0,12.73,47.84626,-54.09684
2019-11-13 08:29:01+00:00,255.0581,8.0,12.73,47.84626,-54.09684
2019-11-13 08:39:01+00:00,264.2514,8.0,12.73,47.84626,-54.09684
2019-11-13 08:49:01+00:00,274.7547,8.0,12.73,47.84626,-54.09684
2019-11-13 08:59:01+00:00,286.963,8.0,12.73,47.84626,-54.09684
2019-11-13 09:09:01+00:00,295.733,8.0,12.73,47.84626,-54.09684
2019-11-13 09:19:01+00:00,304.7496,8.0,12.65,47.84626,-54.09684
2019-11-13 09:29:01+00:00,313.1497,8.0,12.65,47.84626,-54.09684
2019-11-13 09:39:01+00:00,311.9596,8.0,12.65,47.84626,-54.09684
2019-11-13 09:49:01+00:00,302.488,8.0,12.65,47.84626,-54.09684
2019-11-13 09:59:01+00:00,302.363,8.0,12.65,47.84626,-54.09684
2019-11-13 10:09:01+00:00,318.4896,8.0,12.65,47.84626,-54.09684
2019-11-13 10:19:01+00:00,339.5197,8.0,12.65,47.84626,-54.09684
2019-11-13 10:29:01+00:00,346.0814,8.0,12.65,47.84626,-54.09684
2019-11-13 10:39:01+00:00,354.26300000000015,8.0,12.65,47.84626,-54.09684
2019-11-13 10:49:01+00:00,370.0546,8.0,12.65,47.84626,-54.09684
2019-11-13 10:59:01+00:00,384.6096,8.0,12.65,47.84626,-54.09684
2019-11-13 11:09:01+00:00,388.4229,8.0,12.65,47.84626,-54.09684
2019-11-13 11:19:01+00:00,398.2762,8.0,12.65,47.84626,-54.09684
2019-11-13 11:29:01+00:00,404.3297,8.0,12.65,47.84626,-54.09684
2019-11-13 11:39:01+00:00,398.9778,8.0,12.65,47.84626,-54.09684
2019-11-13 11:49:01+00:00,393.0379,8.0,12.65,47.84626,-54.09684
2019-11-13 11:59:01+00:00,397.7479,8.0,12.65,47.84626,-54.09684
2019-11-13 12:09:01+00:00,394.56300000000016,8.03,12.65,47.84626,-54.09684
2019-11-13 12:19:01+00:00,382.0112,8.07,12.65,47.84626,-54.09684
2019-11-13 12:29:01+00:00,383.8812,8.09,12.65,47.84626,-54.09684
2019-11-13 12:39:01+00:00,388.2612,8.09,12.65,47.84626,-54.09684
2019-11-13 12:49:01+00:00,378.0463,8.09,12.65,47.84626,-54.09684
2019-11-13 12:59:01+00:00,375.2463,8.1,12.65,47.84626,-54.09684
2019-11-13 13:09:01+00:00,373.7512,8.1,12.65,47.84626,-54.09684
2019-11-13 13:19:01+00:00,368.9279,8.1,12.65,47.84626,-54.09684
2019-11-13 13:29:01+00:00,360.5312,8.1,12.65,47.84626,-54.09684
2019-11-13 13:39:01+00:00,358.3313,8.1,12.65,47.84626,-54.09684
2019-11-13 13:49:01+00:00,354.2512,8.1,12.65,47.84626,-54.09684
2019-11-13 13:59:01+00:00,347.6329,8.1,12.65,47.84626,-54.09684
2019-11-13 14:09:01+00:00,340.4913,8.1,12.65,47.84626,-54.09684
2019-11-13 14:19:01+00:00,337.5713,8.1,12.65,47.84626,-54.09684
2019-11-13 14:29:01+00:00,335.6763,8.1,12.65,47.84626,-54.09684
2019-11-13 14:39:01+00:00,326.9063,8.09,12.65,47.84626,-54.09684
2019-11-13 14:49:01+00:00,318.8679,8.09,12.65,47.84626,-54.09684
2019-11-13 14:59:01+00:00,320.698,8.09,12.65,47.84626,-54.09684
2019-11-13 15:09:01+00:00,311.3197,8.09,12.65,47.84626,-54.09684
2019-11-13 15:19:01+00:00,298.2763,8.08,12.73,47.84626,-54.09684
2019-11-13 15:29:01+00:00,287.7614,8.09,12.73,47.84626,-54.09684
2019-11-13 15:39:01+00:00,276.3165,8.09,12.73,47.84626,-54.09684
2019-11-13 15:49:01+00:00,269.3397,8.1,12.73,47.84626,-54.09684
2019-11-13 15:59:01+00:00,264.4014,8.1,12.73,47.84626,-54.09684
2019-11-13 16:09:01+00:00,254.3314,8.1,12.73,47.84626,-54.09684
2019-11-13 16:19:01+00:00,234.7514,8.1,12.73,47.84626,-54.09684
2019-11-13 16:29:01+00:00,225.2332,8.1,12.73,47.84626,-54.09684
2019-11-13 16:39:01+00:00,231.0581,8.1,12.73,47.84626,-54.09684
2019-11-13 16:49:01+00:00,224.7681,8.1,12.73,47.84626,-54.09684
2019-11-13 16:59:01+00:00,209.9281,8.1,12.73,47.84626,-54.09684
2019-11-13 17:09:01+00:00,207.2981,8.1,12.73,47.84626,-54.09684
2019-11-13 17:19:01+00:00,210.2948,8.1,12.65,47.84626,-54.09684
2019-11-13 17:29:01+00:00,199.0131,8.1,12.65,47.84626,-54.09684
2019-11-13 17:39:01+00:00,190.6298,8.1,12.65,47.84626,-54.09684
2019-11-13 17:49:01+00:00,197.7332,8.12,12.65,47.84626,-54.09684
2019-11-13 17:59:01+00:00,201.5898,8.14,12.65,47.84626,-54.09684
2019-11-13 18:09:01+00:00,193.3364,8.15,12.65,47.84626,-54.09684
2019-11-13 18:19:01+00:00,188.8915,8.19,12.73,47.84626,-54.09684
2019-11-13 18:29:01+00:00,188.8431,8.19,12.73,47.84626,-54.09684
2019-11-13 18:39:01+00:00,184.8648,8.2,12.73,47.84626,-54.09684
2019-11-13 18:49:01+00:00,184.4048,8.2,12.73,47.84626,-54.09684
2019-11-13 18:59:01+00:00,188.9448,8.2,12.73,47.84626,-54.09684
2019-11-13 19:09:01+00:00,195.9164,8.2,12.73,47.84626,-54.09684
2019-11-13 19:19:01+00:00,204.1031,8.2,12.65,47.84626,-54.09684
2019-11-13 19:29:01+00:00,211.4714,8.2,12.65,47.84626,-54.09684
2019-11-13 19:39:01+00:00,213.2281,8.2,12.65,47.84626,-54.09684
2019-11-13 19:49:01+00:00,214.2864,8.2,12.65,47.84626,-54.09684
2019-11-13 19:59:01+00:00,215.7314,8.2,12.65,47.84626,-54.09684
2019-11-13 20:09:01+00:00,226.7514,8.2,12.65,47.84626,-54.09684
2019-11-13 20:19:01+00:00,242.7015,8.2,12.57,47.84626,-54.09684
2019-11-13 20:29:01+00:00,243.9231,8.2,12.57,47.84626,-54.09684
2019-11-13 20:39:01+00:00,243.1647,8.2,12.57,47.84626,-54.09684
2019-11-13 20:49:01+00:00,256.0981,8.2,12.57,47.84626,-54.09684
2019-11-13 20:59:01+00:00,262.9247,8.2,12.57,47.84626,-54.09684
2019-11-13 21:09:01+00:00,258.8197,8.2,12.57,47.84626,-54.09684
2019-11-13 21:19:01+00:00,261.2381,8.2,12.57,47.84626,-54.09684
2019-11-13 21:29:01+00:00,272.0964,8.2,12.57,47.84626,-54.09684
2019-11-13 21:39:01+00:00,272.5964,8.2,12.57,47.84626,-54.09684
2019-11-13 21:49:01+00:00,274.5464,8.2,12.57,47.84626,-54.09684
2019-11-13 21:59:01+00:00,285.3264,8.2,12.57,47.84626,-54.09684
2019-11-13 22:09:01+00:00,295.4231,8.2,12.57,47.84626,-54.09684
2019-11-13 22:19:01+00:00,295.613,8.2,12.57,47.84626,-54.09684
2019-11-13 22:29:01+00:00,310.0897,8.2,12.57,47.84626,-54.09684
2019-11-13 22:39:01+00:00,327.4612,8.2,12.57,47.84626,-54.09684
2019-11-13 22:49:01+00:00,329.278,8.2,12.57,47.84626,-54.09684
2019-11-13 22:59:01+00:00,335.4496,8.2,12.57,47.84626,-54.09684
2019-11-13 23:09:01+00:00,338.5179,8.2,12.57,47.84626,-54.09684
2019-11-13 23:19:01+00:00,336.0413,8.2,12.57,47.84626,-54.09684
2019-11-13 23:29:01+00:00,326.6514,8.2,12.57,47.84626,-54.09684
2019-11-13 23:39:01+00:00,334.2480000000001,8.2,12.57,47.84626,-54.09684
2019-11-13 23:49:01+00:00,342.1829,8.2,12.57,47.84626,-54.09684
2019-11-13 23:59:01+00:00,338.3063,8.2,12.57,47.84626,-54.09684
